This is the latest recevied weather packets stored in our database for station/object WP3OF-2. If no packets are shown the sender has not sent any weather packets the latest 10 day(s).
| Time | Temp. | Humidity | Pressure | Rain* | Wind** | Luminosity | Snow |
|---|---|---|---|---|---|---|---|
| 1777993671 | 22.78° C | 89% | 1027.9 hPa | 0 mm | - | 888 W/m² | - |
| 1777993368 | 22.78° C | 88% | 1027.9 hPa | 0 mm | - | 352 W/m² | - |
| 1777993068 | 22.22° C | 88% | 1027.4 hPa | 0 mm | - | 854 W/m² | - |
| 1777992767 | 21.67° C | 90% | 1027.9 hPa | 0 mm | - | 676 W/m² | - |
| 1777992464 | 22.22° C | 90% | 1027.9 hPa | 0 mm | - | 206 W/m² | - |
| 1777992162 | 22.22° C | 89% | 1027.4 hPa | 0 mm | - | 949 W/m² | - |
| 1777991859 | 22.22° C | 90% | 1027.4 hPa | 0 mm | - | 597 W/m² | - |
| 1777991556 | 22.22° C | 91% | 1027.4 hPa | 0 mm | - | 980 W/m² | - |
| 1777991253 | 21.67° C | 93% | 1027.4 hPa | 0 mm | - | 1056 W/m² | - |
| 1777990950 | 21.67° C | 92% | 1027.4 hPa | 0 mm | - | 175 W/m² | - |
| 1777990648 | 21.67° C | 92% | 1027.4 hPa | 0 mm | - | 488 W/m² | - |
| 1777990345 | 21.67° C | 92% | 1027.1 hPa | 0 mm | - | 1149 W/m² | - |
| 1777990041 | 21.67° C | 91% | 1027.4 hPa | 0 mm | - | 691 W/m² | - |
| 1777989738 | 22.22° C | 91% | 1027.4 hPa | 0 mm | - | 968 W/m² | - |
| 1777989434 | 21.67° C | 91% | 1027.4 hPa | 0 mm | - | 980 W/m² | - |
| 1777989131 | 21.11° C | 92% | 1027.1 hPa | 0 mm | - | 966 W/m² | - |
| 1777988827 | 21.11° C | 94% | 1027.1 hPa | 0 mm | - | 198 W/m² | - |
| 1777988524 | 21.11° C | 94% | 1027.1 hPa | 0 mm | - | 269 W/m² | - |
| 1777988221 | 21.11° C | 93% | 1027.1 hPa | 0 mm | - | 927 W/m² | - |
| 1777987917 | 21.11° C | 93% | 1027.1 hPa | 0 mm | - | 321 W/m² | - |
| 1777987613 | 21.11° C | 93% | 1027.1 hPa | 0 mm | - | 1019 W/m² | - |
| 1777987311 | 21.11° C | 93% | 1027.1 hPa | 0 mm | - | 195 W/m² | - |
| 1777987008 | 21.11° C | 93% | 1027.1 hPa | 0 mm | - | 381 W/m² | - |
| 1777986706 | 21.11° C | 94% | 1026.7 hPa | 0 mm | - | 236 W/m² | - |
| 1777986403 | 21.11° C | 94% | 1026.7 hPa | 0 mm | - | 741 W/m² | - |
* Rain latest hour (hover to see other rain measurements)
** Current wind speed in m/s (hover to see current wind gust speed)